Temp
19 18 19 19 19 19 19 19 19 19 19 18 18 18 18 18 18 18 19 19 19 19
19 18 18 19 19 19 19 19 19 19 19 19 19 19 19 19 18 18 19 19 19 19
19 19 19 19 18 19 19 20 20 20 19 19 19 19 19 19 19 18 19 19 19 19
20 19 19 19 19 19 19 19 19 20 19 19 19 19 19 19 19 19 19 18 19 19
20 20 19 19 19 19 19 18 18 19 20 20 19 19 19 19 19 19 19 19 18 19
20 20 20 19 19 20 19 19 18 18 19 19 20 20 20 19 19 19 19 19 18 19
19 19 20 19 19 19 19 19 19 19 19 19 19 19 19 19 19 19 19 19 18 18
19 19 19 19 19 19 19 18 19 19 19 19 18 19 19 19 19 19 19 19 18 19
17 18 18 18 18 18 19 18 18 18 19 19 18 18 19 19 18 19 19 19 19 19
17 17 17 17 17 18 18 18 19 18 19 19 19 18 18 18 18 18 18 18 18 18
16 17 17 16 17 17 18 18 18 19 19 19 19 19 18 18 18 18 18 18 18 18
17 17 17 17 16 17 17 18 19 19 19 19 19 19 19 18 19 18 18 18 18 18
17 16 16 16 17 17 17 18 18 18 18 18 19 19 19 19 19 19 19 19 19 19
16 16 16 16 16 17 17 17 17 18 18 19 19 19 19 19 19 18 18 18 19 19
Height
1551 1553 1555 1558 1561 1562 1564 1566 1567 1569 1571 1572 1573 1574 1574 1575 1576 1577 1578 1578 1579 1579
1547 1550 1552 1554 1557 1559 1561 1562 1564 1567 1568 1569 1570 1571 1572 1572 1573 1574 1574 1575 1576 1577
1542 1545 1547 1550 1552 1554 1557 1559 1561 1562 1565 1567 1568 1568 1569 1569 1570 1571 1572 1573 1574 1575
1537 1540 1543 1545 1547 1550 1552 1554 1556 1558 1560 1563 1565 1565 1566 1566 1567 1569 1570 1571 1572 1573
1533 1536 1537 1540 1543 1545 1547 1550 1552 1553 1555 1557 1560 1562 1562 1563 1565 1565 1567 1568 1569 1570
1528 1529 1532 1535 1537 1540 1542 1545 1547 1549 1550 1552 1555 1556 1558 1560 1561 1563 1564 1565 1566 1566
1522 1522 1527 1529 1532 1535 1537 1540 1542 1544 1546 1548 1550 1552 1554 1555 1557 1559 1560 1561 1561 1562
1518 1520 1522 1522 1525 1528 1532 1534 1536 1538 1540 1543 1546 1548 1549 1550 1552 1553 1555 1556 1557 1558
1514 1515 1517 1516 1519 1522 1525 1528 1530 1532 1534 1537 1539 1542 1544 1545 1546 1547 1548 1550 1552 1553
1509 1510 1511 1513 1514 1516 1519 1521 1523 1525 1527 1530 1533 1536 1538 1540 1541 1542 1543 1545 1546 1548
1504 1505 1506 1506 1507 1510 1513 1515 1516 1519 1521 1524 1527 1530 1533 1535 1536 1537 1538 1539 1540 1541
1501 1502 1502 1502 1502 1504 1507 1509 1511 1513 1515 1518 1522 1524 1526 1528 1529 1530 1531 1532 1533 1534
1498 1498 1498 1499 1499 1500 1501 1503 1505 1506 1509 1513 1515 1517 1519 1520 1521 1521 1522 1524 1525 1527
1496 1496 1496 1496 1496 1497 1498 1499 1500 1502 1504 1507 1508 1509 1510 1512 1512 1513 1514 1515 1516 1518
Wind_Speed
22 22 21 22 19 15 12 10 11 13 14 12 10 10 10 8 11 12 10 10 10 9
23 22 22 22 24 17 15 11 11 13 12 11 9 10 10 10 10 10 11 10 11 11
25 24 22 21 26 24 20 19 16 15 15 15 15 13 12 10 11 12 11 10 9 11
24 25 24 24 26 29 26 22 22 16 17 16 17 15 16 14 14 14 12 11 11 12
22 23 24 25 26 26 30 25 23 22 19 19 16 16 19 19 18 17 16 14 14 13
29 29 27 22 23 25 26 29 26 24 24 24 22 18 16 16 18 20 19 18 18 15
22 20 25 25 24 24 25 26 27 25 24 23 21 20 18 16 19 19 20 20 19 17
15 16 20 26 27 26 27 25 23 25 26 23 24 22 21 22 20 21 22 22 21 21
19 17 16 18 22 26 28 27 22 22 24 25 24 23 20 20 21 22 23 25 24 22
21 22 22 22 24 27 27 24 23 21 22 24 24 24 23 23 24 23 24 25 24 23
13 12 17 19 21 20 22 23 25 25 22 22 22 20 21 22 22 24 25 25 26 27
7 8 8 12 14 19 20 18 21 26 26 26 26 24 24 23 25 27 27 27 28 28
5 6 5 6 7 10 18 22 21 23 25 24 26 26 27 26 25 28 31 30 30 32
7 8 8 10 10 9 12 13 15 19 22 22 26 29 26 25 24 24 26 30 35 36
Wind_Direction
233 240 242 236 237 236 237 255 255 257 262 264 268 264 282 254 250 253 261 272 272 282
235 241 248 240 240 246 240 239 245 259 261 258 263 269 274 258 258 253 255 260 264 275
244 245 252 255 246 248 248 244 244 254 252 260 261 265 269 266 256 252 253 256 261 269
248 243 245 251 251 251 253 249 246 253 245 251 265 249 257 264 259 250 250 254 260 274
243 248 244 246 253 253 252 251 250 247 248 243 258 250 259 256 256 255 254 261 267 274
256 252 244 255 253 253 252 250 252 249 249 249 255 255 256 263 261 255 261 265 267 275
250 240 242 254 254 252 249 250 246 248 253 252 252 248 251 263 268 260 263 262 264 270
240 252 256 254 247 246 247 246 249 252 251 247 249 252 257 262 271 262 265 264 270 271
252 251 260 262 254 252 249 246 245 253 254 249 248 253 258 263 270 269 266 268 271 270
263 264 259 259 272 255 248 243 244 246 251 252 253 257 262 263 263 267 267 267 267 268
265 265 264 262 248 249 243 248 246 252 253 255 253 254 263 261 262 267 266 267 266 266
272 268 272 266 261 248 242 255 260 251 250 252 257 263 266 266 263 261 265 267 267 266
310 329 331 294 275 263 253 258 257 246 245 254 259 265 264 266 265 268 265 267 271 268
285 297 308 312 305 286 269 260 251 251 253 264 264 266 258 264 261 266 270 270 273 272